Weather History for KREO - March, 2014

Change the Weather History Date:

Friday, March 28, 2014

  Actual Average Record
Temperature  
Mean Temperature 44 °F 42 °F  
Max Temperature 56 °F 56 °F - ()
Min Temperature 32 °F 28 °F - ()
Degree Days  
Heating Degree Days 21 23  
Month to date heating degree days 607 713  
Since 1 July heating degree days 5029 5447  
Cooling Degree Days 0 0  
Month to date cooling degree days 0 0  
Year to date cooling degree days 0 0  
Moisture  
Dew Point 29 °F    
Average Humidity 57    
Maximum Humidity 78    
Minimum Humidity 35    
Precipitation  
Precipitation 0.00 in 0.03 in - ()
Month to date precipitation 0.24 0.86  
Year to date precipitation 0.99 2.27  
Sea Level Pressure  
Sea Level Pressure 29.97 in    
Wind  
Wind Speed 13 mph (South)    
Max Wind Speed 25 mph    
Max Gust Speed 31 mph    
T = Trace of Precipitation, MM = Missing Value Source: NWS Daily Summary

Daily Weather History Graph

Daily Weather History Graph

Search for Another Location

Airport or City:

Trip Planner

Search our weather history database for the weather conditions in past years. The results will help you decide how hot, cold, wet, or windy it might be!

Date:

Astronomy

Mar. 28, 2014 Rise Set
Actual Time 6:40 AM PDT 7:13 PM PDT
Civil Twilight 6:12 AM PDT 7:41 PM PDT
Nautical Twilight 5:38 AM PDT 8:14 PM PDT
Astronomical Twilight 5:04 AM PDT 8:49 PM PDT
Moon 5:17 AM PDT (3/28) 5:12 PM PDT (3/28)
Length of Visible Light 13h 29m
Length of Day
12h 32m
Waning Crescent, 5% of the Moon is Illuminated
Mar 28
Waning Crescent
Mar 30
New
Apr 7
First Quarter
Apr 15
Full
Apr 22
Last Quarter

Hourly Weather History & Observations

Time (PDT) Temp. Windchill Dew Point Humidity Pressure Visibility Wind Dir Wind Speed Gust Speed Precip Events Conditions
12:52 AM 30.9 °F 24.3 °F 24.1 °F 76% 30.01 in - South 6.9 mph - N/A   Unknown
1:52 AM 37.0 °F 31.0 °F 26.1 °F 65% 30.00 in - South 8.1 mph - N/A   Unknown
2:52 AM 36.0 °F 31.1 °F 26.1 °F 67% 30.00 in - SSW 5.8 mph - N/A   Unknown
3:52 AM 37.9 °F 34.4 °F 30.0 °F 73% 30.00 in - South 4.6 mph - N/A   Unknown
4:52 AM 39.0 °F 34.0 °F 32.0 °F 76% 30.00 in - SSW 6.9 mph - N/A   Unknown
5:52 AM 37.9 °F 35.5 °F 30.0 °F 73% 30.01 in - SSE 3.5 mph - N/A   Unknown
6:52 AM 37.9 °F - 30.9 °F 76% 30.03 in - Calm Calm - N/A   Unknown
7:52 AM 41.0 °F - 32.0 °F 70% 30.04 in - Calm Calm - N/A   Unknown
8:52 AM 46.9 °F - 30.9 °F 54% 30.04 in - SSW 17.3 mph 24.2 mph N/A   Unknown
9:52 AM 46.9 °F - 32.0 °F 56% 30.04 in - SSE 19.6 mph - N/A   Unknown
10:52 AM 50.0 °F - 30.9 °F 48% 30.04 in - South 18.4 mph 26.5 mph N/A   Unknown
11:52 AM 53.1 °F - 30.9 °F 43% 30.03 in - South 19.6 mph 26.5 mph N/A   Unknown
12:52 PM 55.0 °F - 30.9 °F 40% 30.02 in - South 19.6 mph 27.6 mph N/A   Unknown
1:52 PM 54.0 °F - 30.0 °F 40% 29.99 in - SSW 15.0 mph 26.5 mph N/A   Unknown
2:52 PM 54.0 °F - 28.9 °F 38% 29.98 in - SSW 16.1 mph - N/A   Unknown
3:52 PM 54.0 °F - 30.0 °F 40% 29.95 in - South 18.4 mph 26.5 mph N/A   Unknown
4:52 PM 55.0 °F - 28.9 °F 37% 29.93 in - South 17.3 mph 31.1 mph N/A   Unknown
5:52 PM 55.0 °F - 28.9 °F 37% 29.91 in - South 16.1 mph 28.8 mph N/A   Unknown
6:52 PM 54.0 °F - 28.0 °F 37% 29.90 in - South 23.0 mph 29.9 mph N/A   Unknown
7:52 PM 53.1 °F - 28.0 °F 38% 29.90 in - South 16.1 mph - N/A   Unknown
8:52 PM 51.1 °F - 28.0 °F 41% 29.90 in - South 12.7 mph - N/A   Unknown
9:52 PM 48.9 °F - 28.0 °F 44% 29.89 in - South 12.7 mph - N/A   Unknown
10:52 PM 50.0 °F - 28.9 °F 44% 29.88 in - South 11.5 mph - N/A   Unknown
11:52 PM 48.0 °F - 28.9 °F 48% 29.87 in - South 10.4 mph - N/A   Unknown